FW1310 Weather Reports


Display with metric or nautical units.
time (UTC)temp
F
wind
direction
speed
MPH
gust
MPH
rain 1hr
in
rain 24hr
in
rain mn
in
humidity
%
barometer
mb
20260905141003 81 165 3.0 5.0 0.00 0.00 0.00 87 998.9
20260905140503 81 166 3.0 6.0 0.00 0.00 0.00 88 998.8
20260905140002 81 203 3.0 5.0 0.00 0.00 0.00 89 998.8
20260905134503 80 139 3.0 6.0 0.00 0.00 0.00 92 998.6
20260905134003 79 177 2.0 3.0 0.00 0.00 0.00 93 998.6
20260905133502 78 150 1.0 3.0 0.00 0.00 0.00 95 998.6
20260905133003 79 213 1.0 2.0 0.00 0.00 0.00 95 998.5
20260905132003 78 169 1.0 2.0 0.00 0.00 0.00 96 998.4
20260905131503 78 188 1.0 2.0 0.00 0.00 0.00 97 998.4
20260905130003 76 164 1.0 2.0 0.00 0.00 0.00 97 998.2
20260905125504 76 159 1.0 1.0 0.00 0.01 0.00 97 998.1
20260905125003 76 147 1.0 2.0 0.00 0.01 0.00 97 998.1
20260905124503 76 155 1.0 2.0 0.00 0.01 0.00 97 998.2
20260905124003 76 156 2.0 2.0 0.00 0.01 0.00 97 997.9
20260905123003 75 154 1.0 2.0 0.00 0.01 0.00 97 997.9
20260905122503 75 160 1.0 2.0 0.00 0.01 0.00 97 998.0
20260905121503 75 154 2.0 2.0 0.00 0.01 0.00 97 997.8
20260905121003 76 149 1.0 1.0 0.00 0.01 0.00 97 997.7
20260905120503 76 149 1.0 2.0 0.00 0.01 0.00 97 997.5
20260905120003 76 149 1.0 1.0 0.00 0.01 0.00 97 997.6
20260905115503 76 143 1.0 1.0 0.00 0.01 0.00 97 997.6
20260905115003 76 152 1.0 2.0 0.00 0.01 0.00 97 997.5
20260905114503 76 156 1.0 2.0 0.00 0.01 0.00 97 997.6
20260905114003 76 140 0.0 1.0 0.00 0.01 0.00 96 997.5
20260905113504 76 146 1.0 2.0 0.00 0.01 0.00 96 997.4
20260905113004 76 160 1.0 2.0 0.00 0.01 0.00 96 997.5
20260905112503 76 155 2.0 2.0 0.00 0.01 0.00 96 997.5
20260905112003 76 161 1.0 2.0 0.00 0.01 0.00 96 997.4
20260905111503 76 165 1.0 2.0 0.00 0.01 0.00 96 997.3
20260905111003 76 158 1.0 1.0 0.00 0.01 0.00 96 997.2
20260905110503 76 139 0.0 1.0 0.00 0.01 0.00 96 997.2
20260905105503 76 135 0.0 1.0 0.00 0.01 0.00 95 997.1
20260905105003 76 134 0.0 1.0 0.00 0.01 0.00 95 997.3
20260905104003 76 145 1.0 1.0 0.00 0.01 0.00 95 997.1
20260905103003 76 151 1.0 1.0 0.00 0.01 0.00 95 997.2
20260905102503 76 146 0.0 1.0 0.00 0.01 0.00 95 997.3
20260905102003 77 146 0.0 1.0 0.00 0.01 0.00 94 997.3
20260905101503 76 146 0.0 1.0 0.00 0.01 0.00 94 997.2
20260905101003 77 142 1.0 2.0 0.00 0.01 0.00 94 997.4
20260905100502 77 144 0.0 1.0 0.00 0.01 0.00 94 997.4
20260905100003 77 149 1.0 1.0 0.00 0.01 0.00 94 997.3
20260905095503 77 146 0.0 2.0 0.00 0.01 0.00 94 997.3
20260905095003 77 157 1.0 2.0 0.00 0.01 0.00 94 997.3
20260905094503 77 145 1.0 2.0 0.00 0.01 0.00 93 997.3
20260905093503 77 160 1.0 2.0 0.00 0.01 0.00 93 997.2
20260905093004 77 158 1.0 2.0 0.00 0.01 0.00 93 997.3
20260905092003 78 171 1.0 2.0 0.00 0.01 0.00 92 997.1
20260905091504 78 175 1.0 3.0 0.00 0.01 0.00 92 997.2
20260905091003 78 203 1.0 3.0 0.00 0.01 0.00 92 997.2
20260905090003 78 148 1.0 7.0 0.00 0.01 0.00 91 997.2
20260905085503 78 157 1.0 3.0 0.00 0.01 0.00 91 997.3
20260905085003 78 213 2.0 3.0 0.00 0.01 0.00 91 997.1
20260905084503 78 158 1.0 3.0 0.00 0.01 0.00 91 997.1
20260905084003 78 169 2.0 6.0 0.00 0.01 0.00 91 997.5
20260905083502 78 170 3.0 6.0 0.00 0.01 0.00 90 997.3
20260905083003 78 175 2.0 3.0 0.00 0.01 0.00 90 997.4
20260905082003 78 197 2.0 6.0 0.00 0.01 0.00 90 997.3
20260905080503 79 163 4.0 7.0 0.00 0.01 0.00 90 997.3
20260905080003 79 174 3.0 7.0 0.00 0.01 0.00 89 997.4
20260905075503 79 214 3.0 6.0 0.00 0.01 0.00 89 997.4
20260905075003 79 173 4.0 6.0 0.00 0.01 0.00 89 997.5
20260905074503 79 240 3.0 5.0 0.00 0.01 0.00 89 997.7
20260905074003 79 174 2.0 7.0 0.00 0.01 0.00 88 997.4
20260905073503 79 199 3.0 7.0 0.00 0.01 0.00 88 997.7
20260905073003 79 239 3.0 6.0 0.00 0.01 0.00 88 997.5
20260905072503 79 170 3.0 6.0 0.00 0.01 0.00 87 997.8
20260905072003 79 133 2.0 3.0 0.00 0.01 0.00 87 997.6
20260905071504 80 161 3.0 6.0 0.00 0.01 0.00 87 997.4
20260905071003 80 195 3.0 3.0 0.00 0.01 0.00 86 997.8
20260905070503 80 206 5.0 9.0 0.00 0.01 0.00 86 997.6
20260905065502 80 183 3.0 5.0 0.00 0.01 0.00 85 997.8
20260905065003 80 190 3.0 5.0 0.00 0.01 0.00 85 997.8
20260905064503 80 177 4.0 7.0 0.00 0.01 0.00 84 997.9
20260905064003 80 169 5.0 7.0 0.00 0.01 0.00 84 997.9
20260905063503 80 181 5.0 7.0 0.00 0.01 0.00 83 997.8
20260905063003 80 177 3.0 7.0 0.00 0.01 0.00 83 997.7
20260905062503 80 193 4.0 6.0 0.00 0.01 0.00 83 997.8
20260905062003 80 148 3.0 8.0 0.00 0.01 0.00 82 998.0
20260905061503 80 214 7.0 8.0 0.00 0.01 0.00 82 997.7
20260905061003 80 178 3.0 6.0 0.00 0.01 0.00 81 997.9
20260905060003 80 138 3.0 6.0 0.00 0.01 0.00 80 997.9
20260905055003 80 193 4.0 7.0 0.00 0.01 0.00 80 997.9
20260905054503 80 167 5.0 7.0 0.00 0.01 0.00 79 998.1
20260905054003 80 136 2.0 9.0 0.00 0.01 0.00 79 998.1
20260905053503 81 183 3.0 6.0 0.00 0.01 0.00 79 997.8
20260905053003 81 201 5.0 10.0 0.00 0.01 0.00 78 997.8
20260905052503 81 187 3.0 8.0 0.00 0.01 0.00 78 998.0
20260905052003 81 219 5.0 8.0 0.00 0.01 0.00 78 998.1
20260905051003 81 178 6.0 9.0 0.00 0.01 0.00 77 998.0
20260905050503 81 206 4.0 6.0 0.00 0.01 0.00 77 997.8
20260905050003 81 175 2.0 5.0 0.00 0.01 0.00 77 998.1
20260905045503 81 182 3.0 6.0 0.00 0.01 0.01 77 998.2
20260905045003 81 180 3.0 6.0 0.00 0.01 0.01 77 998.2
20260905044503 81 137 2.0 8.0 0.00 0.01 0.01 76 998.2
20260905044003 81 188 3.0 5.0 0.00 0.01 0.01 76 998.0
20260905043004 82 158 3.0 6.0 0.00 0.01 0.01 75 998.0
20260905042503 82 184 3.0 6.0 0.00 0.01 0.01 75 997.9
20260905042003 82 142 2.0 7.0 0.00 0.01 0.01 75 998.0
20260905041503 82 191 2.0 6.0 0.00 0.01 0.01 74 997.9
20260905041003 82 168 2.0 5.0 0.00 0.01 0.01 74 998.0
20260905040503 82 155 3.0 7.0 0.00 0.01 0.01 74 998.0
20260905040003 82 194 3.0 6.0 0.00 0.01 0.01 74 997.9
20260905035003 82 158 3.0 5.0 0.00 0.01 0.01 73 997.7
20260905034503 82 151 2.0 5.0 0.00 0.01 0.01 73 997.9
20260905034003 82 152 2.0 7.0 0.00 0.01 0.01 73 997.9
20260905032503 82 133 2.0 6.0 0.00 0.01 0.01 74 997.9
20260905031503 83 172 2.0 5.0 0.00 0.01 0.01 74 997.8
20260905030503 83 142 1.0 3.0 0.00 0.01 0.01 74 997.5
20260905030003 83 164 3.0 5.0 0.00 0.01 0.01 74 997.6
20260905025503 83 192 3.0 5.0 0.00 0.01 0.01 74 997.7
20260905024503 83 150 3.0 5.0 0.00 0.01 0.01 74 997.5
20260905024003 83 141 2.0 3.0 0.00 0.01 0.01 73 997.5
20260905023503 83 160 2.0 6.0 0.00 0.01 0.01 73 997.4
20260905023004 83 179 3.0 5.0 0.00 0.01 0.01 73 997.4
20260905022503 83 168 2.0 5.0 0.00 0.01 0.01 73 997.3
20260905022003 83 171 3.0 5.0 0.00 0.01 0.01 73 997.2
20260905021503 83 132 2.0 5.0 0.00 0.01 0.01 73 997.2
20260905021002 83 174 2.0 5.0 0.00 0.01 0.01 74 997.3
20260905020502 83 140 2.0 5.0 0.00 0.01 0.01 75 997.2
20260905015503 83 163 3.0 6.0 0.00 0.01 0.01 75 997.1
20260905015003 84 153 2.0 5.0 0.00 0.01 0.01 74 997.1
20260905014503 84 142 2.0 6.0 0.00 0.01 0.01 74 997.0
20260905014003 84 140 2.0 6.0 0.00 0.01 0.01 74 996.8
20260905013503 84 139 1.0 6.0 0.00 0.01 0.01 74 996.8
20260905013003 84 139 2.0 5.0 0.00 0.01 0.01 73 996.8
20260905012503 84 182 3.0 5.0 0.00 0.01 0.01 73 996.7
20260905011502 85 147 2.0 7.0 0.00 0.01 0.01 72 996.8
20260905011003 85 158 2.0 6.0 0.00 0.01 0.01 71 996.5
20260905010503 85 149 2.0 6.0 0.00 0.01 0.01 71 996.6
20260905010003 85 145 2.0 7.0 0.00 0.01 0.01 70 996.6
20260905005003 86 119 2.0 5.0 0.00 0.01 0.01 69 996.7
20260905004502 86 116 1.0 7.0 0.00 0.01 0.01 69 996.6
20260905003003 86 180 5.0 9.0 0.00 0.01 0.01 68 996.4
20260905002503 87 167 3.0 9.0 0.00 0.01 0.01 67 996.3
20260905002003 87 104 2.0 8.0 0.00 0.01 0.01 66 996.3
20260905001503 87 153 5.0 10.0 0.00 0.01 0.01 65 996.2
20260905001003 88 202 6.0 10.0 0.00 0.01 0.01 63 996.1
20260905000503 88 191 3.0 10.0 0.00 0.01 0.01 63 996.1
20260905000002 88 193 5.0 10.0 0.00 0.01 0.01 62 996.2
20260904235502 89 119 2.0 6.0 0.00 0.01 0.01 62 996.0
20260904235003 89 192 3.0 8.0 0.00 0.01 0.01 61 995.9
20260904234503 90 153 4.0 8.0 0.00 0.01 0.01 60 995.9
20260904234003 90 235 4.0 8.0 0.00 0.01 0.01 60 995.9
20260904233503 91 333 2.0 14.0 0.00 0.01 0.01 59 995.7
20260904233003 93 196 4.0 9.0 0.00 0.01 0.01 51 995.8
20260904232502 93 182 4.0 10.0 0.00 0.01 0.01 44 995.7
20260904232003 94 201 3.0 6.0 0.00 0.01 0.01 44 995.8
20260904231503 94 202 5.0 8.0 0.00 0.01 0.01 45 995.8
20260904231003 94 193 3.0 6.0 0.00 0.01 0.01 45 995.9
20260904230503 94 163 3.0 7.0 0.00 0.01 0.01 45 995.8
20260904230003 94 196 4.0 7.0 0.00 0.01 0.01 45 995.9
20260904225503 94 16 5.0 7.0 0.00 0.01 0.01 44 995.9
20260904225002 94 137 3.0 6.0 0.00 0.01 0.01 43 995.8
20260904224502 94 230 3.0 6.0 0.00 0.01 0.01 42 995.8
20260904224003 93 151 2.0 8.0 0.00 0.01 0.01 42 996.0
20260904223503 94 217 5.0 9.0 0.00 0.01 0.01 42 996.0
20260904223003 94 173 3.0 6.0 0.00 0.01 0.01 42 995.9
20260904222503 95 191 3.0 5.0 0.00 0.01 0.01 43 996.0
20260904222003 95 178 2.0 5.0 0.00 0.01 0.01 42 996.0
20260904221003 94 200 4.0 7.0 0.00 0.01 0.01 42 996.0
20260904220503 94 174 3.0 6.0 0.00 0.01 0.01 43 996.1
20260904220003 94 177 2.0 8.0 0.00 0.01 0.01 42 996.3
20260904215503 93 178 6.0 9.0 0.00 0.01 0.01 42 996.2
20260904215003 94 180 7.0 12.0 0.00 0.01 0.01 41 996.7
20260904214503 94 205 5.0 10.0 0.00 0.01 0.01 41 996.4
20260904214003 95 237 3.0 8.0 0.00 0.01 0.01 41 996.3
20260904213503 95 194 3.0 5.0 0.00 0.01 0.01 41 996.5
20260904213003 94 126 3.0 10.0 0.00 0.01 0.01 41 996.6
20260904212003 94 167 6.0 9.0 0.00 0.01 0.01 41 996.8
20260904211503 94 174 5.0 9.0 0.00 0.01 0.01 42 996.8
20260904211003 94 169 3.0 10.0 0.00 0.01 0.01 41 996.9
20260904210503 93 190 6.0 10.0 0.00 0.01 0.01 44 997.0
20260904210003 93 166 4.0 13.0 0.00 0.01 0.01 44 996.8
20260904205503 94 165 4.0 9.0 0.00 0.01 0.01 44 996.9
20260904205004 93 176 4.0 9.0 0.00 0.01 0.01 45 996.9
20260904204503 94 156 4.0 12.0 0.00 0.01 0.01 43 997.1
20260904204003 94 211 3.0 12.0 0.00 0.01 0.01 46 997.1
20260904203004 94 210 3.0 8.0 0.00 0.01 0.01 47 997.0
20260904202003 95 181 3.0 7.0 0.00 0.01 0.01 49 997.2
20260904201503 95 209 3.0 7.0 0.00 0.01 0.01 50 997.1
20260904200503 93 163 3.0 8.0 0.00 0.01 0.01 54 997.3
20260904200003 94 168 4.0 8.0 0.00 0.01 0.01 54 997.5
20260904195003 94 184 6.0 9.0 0.00 0.01 0.01 57 997.6
20260904194503 94 146 2.0 6.0 0.00 0.01 0.01 55 997.6
20260904193503 92 117 1.0 8.0 0.00 0.01 0.01 54 997.6
20260904193003 92 159 4.0 8.0 0.00 0.01 0.01 57 997.7
20260904192504 93 154 3.0 7.0 0.00 0.01 0.01 55 997.8
20260904191503 92 174 5.0 9.0 0.00 0.01 0.01 56 997.9
20260904191003 91 138 5.0 9.0 0.00 0.01 0.01 57 998.2
20260904190503 91 165 7.0 9.0 0.00 0.01 0.01 57 998.1
20260904190003 92 195 5.0 9.0 0.00 0.01 0.01 58 998.2
20260904185503 92 114 1.0 9.0 0.00 0.01 0.01 59 998.1
20260904185003 93 256 7.0 10.0 0.00 0.01 0.01 57 998.3
20260904184503 94 331 3.0 7.0 0.00 0.01 0.01 55 998.2
20260904184004 93 214 7.0 16.0 0.00 0.01 0.01 57 998.2
20260904183503 93 177 2.0 8.0 0.00 0.01 0.01 60 998.4
20260904183003 92 118 4.0 9.0 0.00 0.01 0.01 60 998.4
20260904182502 92 137 3.0 9.0 0.00 0.01 0.01 60 998.3
20260904182003 92 86 4.0 14.0 0.00 0.01 0.01 61 998.3
20260904181503 91 151 5.0 8.0 0.00 0.01 0.01 61 998.4
20260904181003 92 75 5.0 8.0 0.00 0.01 0.01 60 998.2
20260904180503 92 183 4.0 10.0 0.00 0.01 0.01 61 998.4
20260904180003 91 171 4.0 12.0 0.00 0.01 0.01 58 998.4
20260904175003 90 174 4.0 12.0 0.00 0.01 0.01 60 998.4
20260904174502 91 191 3.0 6.0 0.00 0.01 0.01 60 998.7
20260904174003 92 259 2.0 5.0 0.00 0.01 0.01 57 998.6
20260904173503 91 175 2.0 9.0 0.00 0.01 0.01 58 998.8
20260904173003 91 231 3.0 7.0 0.00 0.01 0.01 58 998.7
20260904172503 91 160 5.0 8.0 0.00 0.01 0.01 60 998.8
20260904172003 90 198 5.0 10.0 0.00 0.01 0.01 61 999.0
20260904171003 91 185 6.0 8.0 0.00 0.01 0.01 61 999.0
20260904170502 90 181 3.0 7.0 0.00 0.01 0.01 61 998.8
20260904170003 89 163 2.0 8.0 0.00 0.01 0.01 64 998.9
20260904165503 90 268 5.0 7.0 0.00 0.01 0.01 62 999.2
20260904165003 89 155 4.0 7.0 0.00 0.01 0.01 62 999.0
20260904164003 89 236 2.0 8.0 0.00 0.01 0.01 66 998.8
20260904163503 89 194 2.0 7.0 0.00 0.01 0.01 68 998.8
20260904162003 87 319 3.0 8.0 0.00 0.01 0.01 72 998.9
20260904161503 87 218 4.0 8.0 0.00 0.01 0.01 73 999.0
20260904161003 87 261 3.0 8.0 0.00 0.01 0.01 73 998.9
20260904160503 86 213 4.0 7.0 0.00 0.01 0.01 74 999.0
20260904160003 86 184 3.0 8.0 0.00 0.01 0.01 75 999.0
20260904155503 85 282 4.0 8.0 0.00 0.01 0.01 76 999.0
20260904154503 85 250 3.0 7.0 0.00 0.01 0.01 77 998.9
20260904154003 86 166 3.0 6.0 0.00 0.01 0.01 77 998.9
20260904153503 85 259 2.0 7.0 0.00 0.01 0.01 79 998.9
20260904153003 84 270 3.0 5.0 0.00 0.01 0.01 81 999.0
20260904152503 83 2 3.0 8.0 0.00 0.01 0.01 83 998.9
20260904152003 83 272 4.0 8.0 0.00 0.01 0.01 84 998.9
20260904151503 83 286 2.0 5.0 0.00 0.01 0.01 85 998.9
20260904151003 82 100 2.0 8.0 0.00 0.01 0.01 86 998.9
20260904150503 82 319 4.0 8.0 0.00 0.01 0.01 86 998.8
20260904150003 81 262 3.0 7.0 0.00 0.01 0.01 87 998.6
20260904145004 80 255 3.0 8.0 0.00 0.01 0.01 90 998.6
20260904144502 80 245 6.0 9.0 0.00 0.01 0.01 90 998.5
20260904144003 79 268 5.0 10.0 0.00 0.01 0.01 91 998.7
20260904143503 79 218 3.0 6.0 0.00 0.01 0.01 92 998.6
20260904143003 79 289 4.0 9.0 0.00 0.01 0.01 93 998.6
20260904142503 79 209 4.0 7.0 0.00 0.01 0.01 93 998.6
20260904142004 79 238 3.0 7.0 0.00 0.01 0.01 93 998.5
20260904141503 79 271 3.0 8.0 0.00 0.01 0.01 94 998.6